Regional Weather Roundup
Issued by NWS Northern Indiana

Home | Current Version | Previous Version | Graphics & Text | Print | Product List | Glossary On
Versions: 1 2 3 4 5 6 7 8 9 10 11 12 13 14 15 16 17 18 19 20 21 22 23 24 25 26 27 28 29 30 31 32 33 34 35 36 37 38 39 40 41 42 43 44 45 46 47 48 49 50
000
ASUS43 KIWX 231500
RWRIWX

KIWX WEATHER ROUNDUP
NATIONAL WEATHER SERVICE NORTHERN INDIANA
1000 AM EST THU NOV 23 2017

NOTE: "FAIR" INDICATES FEW OR NO CLOUDS BELOW 12,000 FEET WITH NO
SIGNIFICANT WEATHER AND/OR OBSTRUCTIONS TO VISIBILITY.

* THESE STATIONS ARE NOT UNDER NWS QUALITY CONTROL. THEY ALSO MAY NOT
  REPORT WEATHER SUCH AS PRECIPITATION OR FOG.

INZ001>027-231600-
NORTHERN INDIANA

CITY           SKY/WX    TMP DP  RH WIND       PRES   REMARKS
GARY*          PTSUNNY   36  21  55 SW7       30.06F
MICHIGAN CITY* CLOUDY    34  23  64 S8        30.06F WCI  27
KNOX*          CLOUDY    32  23  69 SW8       30.08S WCI  25
SOUTH BEND     CLOUDY    32  23  69 S9        30.07F WCI  24
GOSHEN         CLOUDY    32  22  66 S10       30.08F WCI  24
MONTICELLO*    CLOUDY    33  22  65 SW9       30.09S WCI  25
FORT WAYNE     CLOUDY    34  27  75 SW10      30.11F WCI  26
PERU/GRISSOM   CLOUDY    34  27  75 SW9       30.09F WCI  26

$$
INZ028>050-231600-
CENTRAL INDIANA

CITY           SKY/WX    TMP DP  RH WIND       PRES   REMARKS
LAFAYETTE      CLOUDY    33  24  69 SW5       30.10F WCI  29
KOKOMO*        CLOUDY    34  25  69 SW8       30.10F WCI  27
MUNCIE*        CLOUDY    36  26  67 S7        30.10F
INDIANAPOLIS   CLOUDY    34  26  72 SW8       30.12F WCI  27

$$
MIZ043>046-050>051-056>058-064>065-071>073-077>080-231600-
SOUTHWEST LOWER MICHIGAN

CITY           SKY/WX    TMP DP  RH WIND       PRES   REMARKS
BATTLE CREEK   CLOUDY    33  22  63 SW10      30.05F WCI  25
BENTON HARBOR  CLOUDY    34  21  59 S7        30.04F WCI  28
COLDWATER*     CLOUDY    32  21  63 SW9       30.06F WCI  25
HILLSDALE*     CLOUDY    32  23  69 SW9       30.05F WCI  24
HOLLAND        CLOUDY    36  25  64 S13       30.03F
GRAND RAPIDS   CLOUDY    34  24  67 S13       30.03S WCI  25
KALAMAZOO      CLOUDY    33  19  56 SW8       30.06F WCI  26
STURGIS*       CLOUDY    32  24  72 SW9       30.06F WCI  24
THREE RIVERS*  CLOUDY    33  23  68 S10       30.06F WCI  25

$$
OHZ001>008-015>018-024>025-231600-
NORTHWEST OHIO

CITY           SKY/WX    TMP DP  RH WIND       PRES   REMARKS
DEFIANCE       CLOUDY    32  25  75 S8        30.11F WCI  25
FINDLAY        CLOUDY    34  24  67 S10       30.11F WCI  26
TOLEDO EXPRESS CLOUDY    33  26  75 S7        30.11F WCI  27
TOLEDO METCALF CLOUDY    34  25  69 SW12      30.12F WCI  25
LIMA           SUNNY     33  26  75 SW8       30.11F WCI  26

$$
AND FOR LAKE MICHIGAN COASTAL AND OPEN LAKE BUOY OBSERVATIONS

STATION/POSITION TEMP    WIND        PRES    VSBY  WAVE
                 AIR SEA DIR/SP/G                  HT/PER
                 (F)     (DEG/KT/KT) (MB)    (MI)  (FT/S)
CALUMET HARBOR    34     180/  8/ 12 1016.8F
MICHIGAN CITY     34     180/  8/ 12   N/A
BURNS HARBOR      34     190/ 11/ 15 1018.3F
SAINT JOSEPH      33     190/  4/ 10 1018.6
SOUTH LAKE BUOY   39 47  240/ 17/ 19 1017.0          4/ 5

$$
&&




USA.gov is the U.S. government's official web portal to all federal, state and local government web resources and services.